BEIDOU-2 G7 1 41586U 16037A 21056.89445281 -.00000358 00000-0 00000+0 0 9992 2 41586 1.4666 63.8233 0008772 7.4341 157.1416 1.00277112 17359 CZ-3B R/B 1 41587U 16037B 21056.26934196 .00006587 00000-0 55539-3 0 9992 2 41587 19.6869 35.6087 6816956 227.6492 50.2944 2.91209572 45299